Location: K�ln
(50.9455°N, 6.9544°E)
Time: 11:53:25
(UTC+02:00)

ISS - Visible Passes

Search period start: 20 May 2018 00:00
Search period end: 30 May 2018 00:00
Orbit: 402 x 407 km, 51.6° (Epoch: 20 May)

Date Brightness Start Highest point End Pass type
(mag) Time Alt. Az. Time Alt. Az. Time Alt. Az.
20 May -1.5 00:06:25 14° E 00:06:25 14° E 00:06:59 10° E visible
20 May -3.9 01:38:58 34° W 01:40:16 83° N 01:43:32 10° E visible
20 May -3.9 03:13:32 10° W 03:16:49 88° SSW 03:20:06 10° ESE visible
20 May -3.0 04:50:11 10° W 04:53:05 30° SSW 04:55:59 10° SSE visible
20 May -2.9 23:09:03 10° SSW 23:11:51 26° SSE 23:14:39 10° E visible
21 May -4.0 00:44:47 10° WSW 00:48:04 84° SSE 00:51:20 10° ENE visible
21 May -3.8 02:21:20 10° W 02:24:37 80° N 02:27:54 10° E visible
21 May -3.5 03:57:52 10° W 04:01:01 44° SSW 04:04:09 10° SE visible
21 May -2.3 22:17:35 10° S 22:19:51 17° SE 22:22:06 10° E visible
21 May -3.9 23:52:39 10° WSW 23:55:53 64° SSE 23:59:08 10° ENE visible
22 May -3.7 01:29:07 10° W 01:32:23 76° N 01:35:40 10° E visible
22 May -3.9 03:05:38 10° W 03:08:53 63° SSW 03:12:07 10° ESE visible
22 May -2.2 04:42:43 10° W 04:44:55 17° SW 04:47:06 10° S visible
22 May -3.6 23:00:36 10° SW 23:03:45 45° SSE 23:06:53 10° E visible
23 May -3.8 00:36:51 10° W 00:40:09 80° N 00:43:26 10° E visible
23 May -4.0 02:13:25 10° WNW 02:16:42 82° SSW 02:19:58 10° ESE visible
23 May -2.8 03:50:07 10° W 03:52:54 26° SSW 03:55:40 10° SSE visible
23 May -3.0 22:08:42 10° SSW 22:11:38 30° SSE 22:14:34 10° E visible
23 May -3.9 23:44:38 10° WSW 23:47:54 89° SSE 23:51:11 10° E visible
24 May -3.9 01:21:10 10° W 01:24:28 83° N 01:27:44 10° E visible
24 May -3.1 02:57:44 10° W 03:00:12 34° SW 03:00:12 34° SW visible
24 May -3.9 22:52:25 10° WSW 22:55:40 71° SSE 22:58:56 10° ENE visible
25 May -3.7 00:28:55 10° W 00:32:12 77° N 00:35:28 10° E visible
25 May -3.6 02:05:27 10° W 02:08:09 48° WSW 02:08:09 48° WSW visible
25 May -3.7 23:36:38 10° W 23:39:55 78° N 23:43:12 10° E visible
26 May -4.0 01:13:10 10° WNW 01:16:27 76° SSW 01:17:03 54° SE visible
26 May -3.8 22:44:20 10° W 22:47:38 86° N 22:50:55 10° E visible
27 May -3.9 00:20:54 10° W 00:24:11 88° NNE 00:26:11 22° E visible
27 May -2.0 01:57:29 10° W 01:58:47 20° W 01:58:47 20° W visible
27 May -3.7 23:28:36 10° W 23:31:54 78° N 23:35:10 10° E visible
28 May -3.5 01:05:08 10° W 01:08:01 47° SW 01:08:01 47° SW visible
28 May -3.7 22:36:17 10° W 22:39:34 76° N 22:42:51 10° E visible
29 May -3.9 00:12:49 10° WNW 00:16:04 69° SSW 00:17:18 34° SE visible
29 May -1.2 01:49:44 10° W 01:49:55 11° W 01:49:55 11° W visible
29 May -3.9 23:20:30 10° W 23:23:47 87° S 23:26:37 13° ESE visible
